Change the Weather History Date:

Thursday, July 11, 2013

  Actual Average Record
Temperature  
Mean Temperature 63 °F 65 °F  
Max Temperature 81 °F 78 °F 94 °F (1921)
Min Temperature 45 °F 53 °F 32 °F (1911)
Degree Days  
Heating Degree Days 2 2  
Month to date heating degree days 2 29  
Since 1 June heating degree days 171 193  
Since 1 July heating degree days 2 29  
Cooling Degree Days 0 3  
Month to date cooling degree days 30 24  
Year to date cooling degree days 67 71  
Since 1 June cooling degree days 64 62  
Growing Degree Days 13 (Base 50)    
Moisture  
Dew Point 55 °F    
Average Humidity 71    
Maximum Humidity 100    
Minimum Humidity 42    
Precipitation  
Precipitation 0.00 in 0.12 in 2.04 in (2008)
Month to date precipitation 1.62 1.55  
Year to date precipitation 15.60 12.00  
Snow  
Snow 0.00 in 0.00 in 0.00 in (2002)
Month to date snowfall 0.0 0.0  
Since 1 June snowfall 0.0 0.0  
Since 1 July snowfall 0.0 0.0  
Snow Depth 0.00 in    
Sea Level Pressure  
Sea Level Pressure 30.00 in    
Wind  
Wind Speed 4 mph (SSW)    
Max Wind Speed 14 mph    
Max Gust Speed 21 mph    
Visibility 9 miles    
Events      
T = Trace of Precipitation, MM = Missing Value Source: NWS Daily Summary

Daily Weather History Graph

Daily Weather History Graph

Search for Another Location

Airport or City:

Trip Planner

Search our weather history database for the weather conditions in past years. The results will help you decide how hot, cold, wet, or windy it might be!

Date:

Astronomy

Jul. 11, 2013 Rise Set
Actual Time 5:23 AM CDT 9:14 PM CDT
Civil Twilight 4:43 AM CDT 9:54 PM CDT
Nautical Twilight 3:47 AM CDT 10:49 PM CDT
Astronomical Twilight 2:21 AM CDT 12:13 AM CDT
Moon 9:03 AM CDT (7/11) 10:31 PM CDT (7/11)
Length of Visible Light 17h 11m
Length of Day
15h 50m
Waxing Crescent, 11% of the Moon is Illuminated
Jul 11
Waxing Crescent
Jul 15
First Quarter
Jul 22
Full
Jul 29
Last Quarter
Aug 6
New

Hourly Weather History & Observations

Time (CDT) Temp. Heat Index Dew Point Humidity Pressure Visibility Wind Dir Wind Speed Gust Speed Precip Events Conditions
12:55 AM 54.0 °F - 53.1 °F 97% 30.04 in 7.0 mi Calm Calm - N/A   Clear
1:55 AM 51.1 °F - 51.1 °F 100% 30.04 in 10.0 mi Calm Calm - N/A   Clear
2:55 AM 52.0 °F - 51.1 °F 97% 30.05 in 10.0 mi Calm Calm - N/A   Clear
3:55 AM 48.9 °F - 48.0 °F 97% 30.06 in 9.0 mi Calm Calm - N/A   Clear
4:55 AM 46.0 °F - 45.0 °F 96% 30.06 in 8.0 mi Calm Calm - N/A   Clear
5:55 AM 48.0 °F - 48.0 °F 100% 30.07 in 6.0 mi Calm Calm - N/A   Clear
6:55 AM 54.0 °F - 53.1 °F 97% 30.08 in 8.0 mi Calm Calm - N/A   Clear
7:55 AM 61.0 °F - 57.0 °F 87% 30.07 in 10.0 mi Variable 3.5 mph - N/A   Clear
8:55 AM 68.0 °F - 57.9 °F 70% 30.06 in 10.0 mi Calm Calm - N/A   Clear
9:55 AM 72.0 °F - 57.0 °F 59% 30.05 in 10.0 mi SSW 4.6 mph - N/A   Clear
10:55 AM 75.9 °F - 59.0 °F 56% 30.04 in 10.0 mi Variable 3.5 mph - N/A   Clear
11:55 AM 77.0 °F - 57.0 °F 50% 30.03 in 10.0 mi SSW 9.2 mph 17.3 mph N/A   Partly Cloudy
12:55 PM 79.0 °F - 57.0 °F 47% 30.01 in 10.0 mi SSW 8.1 mph 17.3 mph N/A   Partly Cloudy
1:55 PM 79.0 °F - 57.9 °F 48% 30.00 in 10.0 mi South 8.1 mph 16.1 mph N/A   Clear
2:55 PM 79.0 °F - 57.0 °F 47% 29.98 in 10.0 mi SSW 8.1 mph - N/A   Partly Cloudy
3:55 PM 81.0 °F 81.0 °F 57.0 °F 44% 29.97 in 10.0 mi SSW 8.1 mph 19.6 mph N/A   Scattered Clouds
4:55 PM 80.1 °F 80.2 °F 55.9 °F 43% 29.95 in 10.0 mi South 8.1 mph - N/A   Clear
5:55 PM 80.1 °F 80.1 °F 55.0 °F 42% 29.94 in 10.0 mi SSW 9.2 mph 17.3 mph N/A   Clear
6:55 PM 79.0 °F - 55.0 °F 44% 29.92 in 10.0 mi Variable 6.9 mph - N/A   Clear
7:55 PM 77.0 °F - 57.0 °F 50% 29.91 in 10.0 mi Variable 4.6 mph - N/A   Clear
8:55 PM 73.0 °F - 57.9 °F 59% 29.90 in 10.0 mi Calm Calm - N/A   Partly Cloudy
9:55 PM 70.0 °F - 59.0 °F 68% 29.89 in 10.0 mi Variable 4.6 mph - N/A   Clear
10:55 PM 69.1 °F - 59.0 °F 70% 29.90 in 10.0 mi Calm Calm - N/A   Clear
11:55 PM 68.0 °F - 59.0 °F 73% 29.89 in 9.0 mi SSE 3.5 mph - N/A   Clear